TimeEDT,TemperatureF,Dew PointF,Humidity,Sea Level PressureIn,VisibilityMPH,Wind Direction,Wind SpeedMPH,Gust SpeedMPH,PrecipitationIn,Events,Conditions,WindDirDegrees,DateUTC
12:53 AM,53.1,43.0,69,29.96,10.0,SW,9.2,-,N/A,,Clear,230,2013-09-10 04:53:00
1:53 AM,53.1,43.0,69,29.98,10.0,SSW,8.1,-,N/A,,Clear,200,2013-09-10 05:53:00
2:53 AM,53.1,44.1,71,29.98,10.0,Variable,3.5,-,N/A,,Clear,0,2013-09-10 06:53:00
3:53 AM,52.0,44.1,74,29.97,10.0,South,5.8,-,N/A,,Clear,170,2013-09-10 07:53:00
4:53 AM,53.1,45.0,74,29.98,10.0,South,9.2,-,N/A,,Clear,190,2013-09-10 08:53:00
5:53 AM,52.0,45.0,77,30.00,10.0,South,8.1,-,N/A,,Mostly Cloudy,190,2013-09-10 09:53:00
6:53 AM,53.1,45.0,74,30.01,10.0,South,5.8,-,N/A,,Overcast,180,2013-09-10 10:53:00
7:53 AM,54.0,46.9,77,30.01,10.0,South,4.6,-,N/A,,Clear,190,2013-09-10 11:53:00
8:53 AM,55.9,46.9,72,30.02,10.0,South,4.6,-,N/A,,Clear,180,2013-09-10 12:53:00
9:53 AM,57.9,48.0,70,30.02,10.0,SSW,3.5,-,N/A,,Partly Cloudy,200,2013-09-10 13:53:00
10:53 AM,60.1,48.9,67,30.03,10.0,SSE,3.5,-,N/A,,Mostly Cloudy,150,2013-09-10 14:53:00
11:53 AM,62.1,50.0,65,30.02,10.0,SSE,6.9,-,N/A,,Mostly Cloudy,160,2013-09-10 15:53:00
12:53 PM,64.9,50.0,58,30.03,10.0,Variable,6.9,-,N/A,,Clear,0,2013-09-10 16:53:00
1:53 PM,64.9,50.0,58,30.03,10.0,South,8.1,-,N/A,,Overcast,180,2013-09-10 17:53:00
2:53 PM,64.9,50.0,58,30.02,10.0,South,6.9,-,N/A,,Overcast,190,2013-09-10 18:53:00
3:53 PM,63.0,50.0,63,30.04,10.0,SSW,8.1,-,N/A,,Overcast,200,2013-09-10 19:53:00
4:53 PM,62.1,51.1,67,30.03,10.0,South,6.9,-,N/A,,Overcast,180,2013-09-10 20:53:00
5:53 PM,61.0,52.0,72,30.04,10.0,South,3.5,-,N/A,,Overcast,190,2013-09-10 21:53:00
6:53 PM,59.0,53.1,81,30.04,10.0,SSE,4.6,-,N/A,,Overcast,150,2013-09-10 22:53:00
7:34 PM,59.0,53.6,82,30.05,10.0,SSE,4.6,-,N/A,,Overcast,150,2013-09-10 23:34:00
7:53 PM,59.0,53.1,81,30.06,10.0,SSE,6.9,-,N/A,,Overcast,160,2013-09-10 23:53:00
8:25 PM,59.0,53.6,82,30.05,10.0,SE,6.9,-,N/A,,Overcast,140,2013-09-11 00:25:00
8:53 PM,57.9,55.0,90,30.05,10.0,SSE,6.9,-,N/A,,Overcast,150,2013-09-11 00:53:00
9:26 PM,57.2,55.4,94,30.05,10.0,SSE,6.9,-,N/A,,Overcast,160,2013-09-11 01:26:00
9:53 PM,57.9,54.0,87,30.04,10.0,SSE,9.2,-,N/A,,Overcast,150,2013-09-11 01:53:00
10:45 PM,57.2,55.4,94,30.04,10.0,South,6.9,-,N/A,,Overcast,170,2013-09-11 02:45:00
10:53 PM,57.9,55.0,90,30.03,8.0,South,8.1,-,0.00,Rain,Light Rain,170,2013-09-11 02:53:00
11:26 PM,57.2,55.4,94,30.02,6.0,SSE,5.8,-,0.00,,Overcast,160,2013-09-11 03:26:00
11:38 PM,57.2,55.4,94,30.02,2.5,SSE,6.9,-,0.02,Rain,Light Rain,160,2013-09-11 03:38:00
11:49 PM,55.4,55.4,100,30.01,4.0,SSE,5.8,-,0.02,Rain,Light Rain,150,2013-09-11 03:49:00
11:53 PM,55.9,55.0,97,30.01,4.0,SSE,4.6,-,0.02,Rain,Light Rain,150,2013-09-11 03:53:00